Weather History for St. Joseph, MO

Change the Weather History Date:

Saturday, March 9, 2013

  Actual Average Record
Temperature  
Mean Temperature 49 °F 40 °F  
Max Temperature 53 °F 51 °F 76 °F (1986)
Min Temperature 44 °F 29 °F 1 °F (1978)
Degree Days  
Heating Degree Days 16 25  
Month to date heating degree days 273 241  
Since 1 July heating degree days 4377 4549  
Cooling Degree Days 0 0  
Month to date cooling degree days 0 0  
Year to date cooling degree days 0 0  
Moisture  
Dew Point 45 °F    
Average Humidity 86    
Maximum Humidity 100    
Minimum Humidity 71    
Precipitation  
Precipitation 1.19 in 0.07 in 1.19 in (2013)
Month to date precipitation 1.19 0.52  
Year to date precipitation 2.20 2.01  
Sea Level Pressure  
Sea Level Pressure 29.75 in    
Wind  
Wind Speed 9 mph (SE)    
Max Wind Speed 16 mph    
Max Gust Speed 20 mph    
Visibility 4 miles    
Events Rain    
T = Trace of Precipitation, MM = Missing Value Source: NWS Daily Summary

Daily Weather History Graph

Daily Weather History Graph

Search for Another Location

Airport:

Trip Planner

Search our weather history database for the weather conditions in past years. The results will help you decide how hot, cold, wet, or windy it might be!

Date:

Astronomy

Mar. 09, 2013 Rise Set
Actual Time 6:40 AM CST 6:20 PM CST
Civil Twilight 6:13 AM CST 6:47 PM CST
Nautical Twilight 5:42 AM CST 7:18 PM CST
Astronomical Twilight 5:10 AM CST 7:50 PM CST
Moon 5:04 AM CST (3/9) 4:23 PM CST (3/9)
Length of Visible Light 12h 34m
Length of Day
11h 40m
Waning Crescent, 5% of the Moon is Illuminated
Mar 9
Waning Crescent
Mar 11
New
Mar 19
First Quarter
Mar 27
Full
Apr 2
Last Quarter

Hourly Weather History & Observations

Time (CST) Temp. Windchill Dew Point Humidity Pressure Visibility Wind Dir Wind Speed Gust Speed Precip Events Conditions
12:53 AM 46.0 °F 40.2 °F 37.0 °F 71% 29.96 in 10.0 mi SE 12.7 mph - N/A   Overcast
1:53 AM 46.0 °F 40.6 °F 37.0 °F 71% 29.96 in 10.0 mi SSE 11.5 mph - N/A   Overcast
2:53 AM 45.0 °F 39.7 °F 37.9 °F 76% 29.92 in 9.0 mi SE 10.4 mph - N/A   Overcast
3:53 AM 45.0 °F 41.2 °F 37.9 °F 76% 29.90 in 9.0 mi SE 6.9 mph - N/A   Overcast
4:53 AM 45.0 °F 40.6 °F 37.9 °F 76% 29.87 in 8.0 mi SE 8.1 mph - N/A   Overcast
5:53 AM 45.0 °F 38.5 °F 37.9 °F 76% 29.85 in 7.0 mi ESE 13.8 mph - N/A   Overcast
6:53 AM 44.1 °F 40.1 °F 39.0 °F 82% 29.87 in 7.0 mi SE 6.9 mph - N/A   Overcast
7:41 AM 44.6 °F 39.7 °F 39.2 °F 81% 29.84 in 6.0 mi SE 9.2 mph - 0.00 in   Overcast
7:53 AM 45.0 °F 40.1 °F 39.0 °F 80% 29.85 in 6.0 mi SE 9.2 mph - 0.00 in   Haze
8:27 AM 44.6 °F 39.7 °F 39.2 °F 81% 29.83 in 2.5 mi SE 9.2 mph - 0.04 in Rain Rain
8:40 AM 44.6 °F 39.2 °F 39.2 °F 81% 29.82 in 4.0 mi ESE 10.4 mph - 0.04 in Rain Light Rain
8:53 AM 44.1 °F 38.6 °F 41.0 °F 89% 29.83 in 2.5 mi SE 10.4 mph - 0.07 in Rain Rain
9:01 AM 44.6 °F 40.2 °F 41.0 °F 87% 29.83 in 1.8 mi SE 8.1 mph - 0.02 in Rain Rain
9:22 AM 44.6 °F 40.7 °F 41.0 °F 87% 29.83 in 2.0 mi SE 6.9 mph - 0.14 in Rain Rain
9:35 AM 44.6 °F 40.2 °F 41.0 °F 87% 29.84 in 1.5 mi SE 8.1 mph - 0.22 in Rain Heavy Rain
9:53 AM 44.1 °F 39.0 °F 41.0 °F 89% 29.83 in 1.2 mi SE 9.2 mph - 0.32 in Rain Heavy Rain
10:25 AM 44.6 °F 39.2 °F 42.8 °F 93% 29.80 in 2.0 mi SE 10.4 mph - 0.14 in Rain Rain
10:53 AM 44.1 °F 39.0 °F 42.1 °F 93% 29.80 in 2.0 mi SE 9.2 mph - 0.20 in Rain Rain
11:05 AM 44.6 °F 40.2 °F 42.8 °F 93% 29.78 in 2.0 mi SE 8.1 mph - 0.02 in Rain Light Rain
11:17 AM 44.6 °F 39.2 °F 42.8 °F 93% 29.77 in 3.0 mi SE 10.4 mph - 0.02 in Rain Light Rain
11:31 AM 46.4 °F 41.5 °F 42.8 °F 87% 29.77 in 2.5 mi SE 10.4 mph - 0.03 in Rain Light Rain
11:53 AM 45.0 °F 41.2 °F 43.0 °F 93% 29.78 in 1.8 mi SE 6.9 mph - 0.07 in Rain Rain
12:01 PM 46.4 °F 42.4 °F 44.6 °F 93% 29.77 in 2.0 mi SSE 8.1 mph - 0.01 in Rain Light Rain
12:17 PM 46.4 °F 42.9 °F 44.6 °F 93% 29.76 in 1.5 mi SE 6.9 mph - 0.05 in Rain Rain
12:32 PM 46.4 °F 42.9 °F 42.8 °F 87% 29.74 in 2.5 mi SE 6.9 mph - 0.08 in Rain Rain
12:53 PM 46.0 °F 41.0 °F 43.0 °F 89% 29.74 in 3.0 mi ESE 10.4 mph - 0.09 in Rain Light Rain
1:26 PM 46.4 °F 42.9 °F 42.8 °F 87% 29.72 in 2.5 mi SSE 6.9 mph - 0.05 in Rain Rain
1:53 PM 46.0 °F 41.9 °F 43.0 °F 89% 29.69 in 2.0 mi ESE 8.1 mph - 0.12 in Rain Rain
2:41 PM 48.2 °F - 44.6 °F 87% 29.69 in 4.0 mi SE 8.1 mph - 0.06 in   Overcast
2:53 PM 48.0 °F - 45.0 °F 89% 29.69 in 3.0 mi SE 9.2 mph - 0.06 in Rain Light Rain
3:53 PM 51.1 °F - 48.0 °F 89% 29.69 in 3.0 mi South 8.1 mph - 0.04 in Rain Light Rain
4:01 PM 51.8 °F - 48.2 °F 88% 29.69 in 2.0 mi South 9.2 mph - 0.01 in Rain Light Rain
4:22 PM 51.8 °F - 48.2 °F 88% 29.67 in 3.0 mi SSE 8.1 mph - 0.03 in Rain Light Rain
4:45 PM 51.8 °F - 50.0 °F 94% 29.69 in 2.5 mi South 8.1 mph - 0.04 in Rain Light Rain
4:53 PM 51.1 °F - 50.0 °F 96% 29.67 in 2.0 mi SE 5.8 mph - 0.06 in Rain Rain
5:01 PM 51.8 °F - 48.2 °F 88% 29.67 in 1.8 mi SSE 8.1 mph - 0.02 in Rain Rain
5:13 PM 51.8 °F - 50.0 °F 94% 29.67 in 2.0 mi South 5.8 mph - 0.04 in Rain Light Rain
5:39 PM 51.8 °F - 50.0 °F 94% 29.66 in 3.0 mi SE 9.2 mph - 0.08 in Rain Light Rain
5:53 PM 52.0 °F - 50.0 °F 93% 29.65 in 4.0 mi SE 9.2 mph - 0.08 in Rain Light Rain
6:53 PM 53.1 °F - 51.1 °F 93% 29.65 in 5.0 mi SE 8.1 mph - 0.06 in Rain Light Rain
7:53 PM 53.1 °F - 50.0 °F 89% 29.62 in 7.0 mi SE 9.2 mph - 0.01 in   Mostly Cloudy
8:17 PM 51.8 °F - 50.0 °F 94% 29.64 in 7.0 mi SE 12.7 mph - N/A   Mostly Cloudy
8:45 PM 51.8 °F - 50.0 °F 94% 29.64 in 6.0 mi SE 9.2 mph - N/A   Overcast
8:53 PM 52.0 °F - 50.0 °F 93% 29.65 in 5.0 mi SE 10.4 mph - N/A   Overcast
9:40 PM 51.8 °F - 50.0 °F 94% 29.59 in 6.0 mi ESE 13.8 mph - N/A   Overcast
9:53 PM 52.0 °F - 51.1 °F 97% 29.59 in 6.0 mi SSE 11.5 mph - N/A   Overcast
10:02 PM 51.8 °F - 51.8 °F 100% 29.59 in 6.0 mi SSE 11.5 mph - N/A   Overcast
10:53 PM 52.0 °F - 51.1 °F 97% 29.64 in 5.0 mi South 5.8 mph - N/A   Overcast
11:53 PM 51.1 °F - 50.0 °F 96% 29.62 in 3.0 mi NE 6.9 mph - N/A   Overcast